New Haven, CT

4:07 AM EDT on August 24, 2016 (GMT -0400)
Tweed-New Haven

Weather History for KHVN - October, 2012

Change the Weather History Date:

Tuesday, October 16, 2012

  Actual Average Record
Temperature  
Mean Temperature 54 °F -  
Max Temperature 62 °F 59 °F 76 °F (1989)
Min Temperature 45 °F 44 °F 34 °F (1978)
Degree Days  
Heating Degree Days 12    
Growing Degree Days 4 (Base 50)    
Moisture  
Dew Point 42 °F    
Average Humidity 63    
Maximum Humidity 90    
Minimum Humidity 41    
Precipitation  
Precipitation 0.00 in - - ()
Sea Level Pressure  
Sea Level Pressure 29.74 in    
Wind  
Wind Speed 5 mph (NNW)    
Max Wind Speed 13 mph    
Max Gust Speed 28 mph    
Visibility 10 miles    
Events Rain    
Averages and records for this station are not official NWS values.
T = Trace of Precipitation, MM = Missing Value Source: NWS Daily Summary

Daily Weather History Graph

Daily Weather History Graph

Search for Another Location

Airport or City:

Trip Planner

Search our weather history database for the weather conditions in past years. The results will help you decide how hot, cold, wet, or windy it might be!

Date:

Astronomy

Oct. 16, 2012 Rise Set
Actual Time 7:04 AM EDT 6:08 PM EDT
Civil Twilight 6:37 AM EDT 6:36 PM EDT
Nautical Twilight 6:04 AM EDT 7:08 PM EDT
Astronomical Twilight 5:32 AM EDT 7:40 PM EDT
Moon 8:25 AM EDT (10/16) 6:49 PM EDT (10/16)
Length of Visible Light 11h 59m
Length of Day
11h 03m
New Moon, 2% of the Moon is Illuminated
Oct 16
New Moon
Oct 21
First Quarter
Oct 29
Full
Nov 6
Last Quarter
Nov 13
New

Hourly Weather History & Observations

Time (EDT) Temp. Windchill Dew Point Humidity Pressure Visibility Wind Dir Wind Speed Gust Speed Precip Events Conditions
12:13 AM 60.8 °F - 57.2 °F 88% 29.66 in 10.0 mi Calm Calm - N/A   Overcast
12:53 AM 62.1 °F - 57.9 °F 86% 29.63 in 10.0 mi Calm Calm - 0.00 in Rain Light Rain
1:21 AM 60.8 °F - 57.2 °F 88% 29.65 in 10.0 mi Calm Calm - 0.00 in   Overcast
1:53 AM 61.0 °F - 57.9 °F 90% 29.65 in 10.0 mi NW 3.5 mph - 0.00 in Rain Light Rain
2:53 AM 59.0 °F - 55.0 °F 87% 29.63 in 10.0 mi North 10.4 mph - 0.00 in   Overcast
3:53 AM 57.0 °F - 51.1 °F 81% 29.63 in 10.0 mi North 8.1 mph - N/A   Overcast
4:53 AM 55.9 °F - 48.9 °F 77% 29.65 in 10.0 mi NNW 4.6 mph - N/A   Overcast
5:53 AM 55.0 °F - 46.0 °F 72% 29.65 in 10.0 mi NW 6.9 mph - N/A   Scattered Clouds
6:53 AM 52.0 °F - 37.9 °F 59% 29.69 in 10.0 mi NNW 10.4 mph 18.4 mph N/A   Scattered Clouds
7:53 AM 51.8 °F - 37.4 °F 58% 29.72 in 10.0 mi NW 3.5 mph - N/A   Scattered Clouds
8:53 AM 54.0 °F - 37.9 °F 55% 29.74 in 10.0 mi NNW 6.9 mph - N/A   Scattered Clouds
9:53 AM 55.0 °F - 37.0 °F 51% 29.75 in 10.0 mi NW 9.2 mph 21.9 mph N/A   Scattered Clouds
10:53 AM 55.9 °F - 37.0 °F 49% 29.75 in 10.0 mi NNW 9.2 mph 21.9 mph N/A   Scattered Clouds
11:53 AM 57.0 °F - 36.0 °F 45% 29.75 in 10.0 mi NW 12.7 mph 23.0 mph N/A   Clear
12:53 PM 57.0 °F - 37.0 °F 47% 29.74 in 10.0 mi NW 10.4 mph 27.6 mph N/A   Scattered Clouds
1:53 PM 59.0 °F - 37.0 °F 44% 29.74 in 10.0 mi NW 11.5 mph 23.0 mph N/A   Partly Cloudy
2:53 PM 60.1 °F - 37.0 °F 42% 29.74 in 10.0 mi NW 10.4 mph 20.7 mph N/A   Clear
3:53 PM 60.1 °F - 36.0 °F 41% 29.75 in 10.0 mi NNW 11.5 mph 18.4 mph N/A   Clear
4:53 PM 59.0 °F - 36.0 °F 42% 29.76 in 10.0 mi NNW 9.2 mph 18.4 mph N/A   Clear
5:53 PM 57.0 °F - 34.0 °F 42% 29.80 in 10.0 mi NNW 6.9 mph - N/A   Clear
6:53 PM 54.0 °F - 36.0 °F 51% 29.82 in 10.0 mi NNW 4.6 mph - N/A   Clear
7:53 PM 50.0 °F - 37.0 °F 61% 29.85 in 10.0 mi Calm Calm - N/A   Clear
8:53 PM 50.0 °F - 37.0 °F 61% 29.88 in 10.0 mi Variable 3.5 mph - N/A   Clear
9:53 PM 46.0 °F - 39.0 °F 76% 29.90 in 10.0 mi Calm Calm - N/A   Clear
10:53 PM 45.0 °F 42.6 °F 37.9 °F 76% 29.90 in 10.0 mi NNW 4.6 mph - N/A   Clear
11:53 PM 45.0 °F - 37.0 °F 74% 29.92 in 10.0 mi Calm Calm - N/A   Clear